Weather History for Flora, IL

Change the Weather History Date:

Wednesday, October 23, 2013

  Actual Average (KEVV) Record (KEVV)
Temperature  
Mean Temperature 42 °F 56 °F  
Max Temperature 48 °F 67 °F 88 °F (1963)
Min Temperature 37 °F 44 °F 26 °F (1952)
Degree Days  
Heating Degree Days 23 10  
Month to date heating degree days 167  
Since 1 July heating degree days 214  
Cooling Degree Days 0 0  
Month to date cooling degree days 28  
Year to date cooling degree days 1394  
Moisture  
Dew Point 32 °F    
Average Humidity 69    
Maximum Humidity 93    
Minimum Humidity 43    
Precipitation  
Precipitation 0.00 in 0.11 in 2.45 in (1976)
Month to date precipitation 2.37  
Year to date precipitation 36.34  
Snow  
Snow 0.00 in 0.00 in 0.00 in (2002)
Month to date snowfall 0.1  
Since 1 July snowfall 0.1  
Since 1 September snowfall 0.1  
Snow Depth -    
Sea Level Pressure  
Sea Level Pressure 30.06 in    
Wind  
Wind Speed 9 mph (WNW)    
Max Wind Speed 15 mph    
Max Gust Speed 21 mph    
Visibility 10 miles    
Events      
T = Trace of Precipitation, MM = Missing Value Source: NWS Daily Summary

Daily Weather History Graph

Daily Weather History Graph

Search for Another Location

Airport:

Trip Planner

Search our weather history database for the weather conditions in past years. The results will help you decide how hot, cold, wet, or windy it might be!

Date:

Astronomy

Oct. 23, 2013 Rise Set
Actual Time 7:11 AM CDT 6:04 PM CDT
Civil Twilight 6:44 AM CDT 6:31 PM CDT
Nautical Twilight 6:13 AM CDT 7:02 PM CDT
Astronomical Twilight 5:42 AM CDT 7:33 PM CDT
Moon 9:36 PM CDT (10/23) 11:26 AM CDT (10/23)
Length of Visible Light 11h 47m
Length of Day
10h 52m
Waning Gibbous, 79% of the Moon is Illuminated
Oct 23
Waning Gibbous
Oct 26
Last Quarter
Nov 3
New
Nov 9
First Quarter
Nov 17
Full

Hourly Weather History & Observations

Time (CDT) Temp. Windchill Dew Point Humidity Pressure Visibility Wind Dir Wind Speed Gust Speed Precip Events Conditions
12:50 AM 41.0 °F 34.7 °F 39.2 °F 93% 29.91 in 10.0 mi NW 10.4 mph 17.3 mph N/A   Clear
1:35 AM 39.0 °F 30.6 °F 36.3 °F 90% 29.93 in 10.0 mi NNW 15.0 mph 19.6 mph N/A   Clear
1:55 AM 38.8 °F 30.8 °F 35.8 °F 89% 29.94 in 10.0 mi NW 13.8 mph 20.7 mph N/A   Clear
2:15 AM 38.8 °F 32.6 °F 35.8 °F 89% 29.95 in 10.0 mi NW 9.2 mph - N/A   Clear
2:35 AM 38.8 °F 31.2 °F 35.2 °F 87% 29.95 in 10.0 mi NW 12.7 mph 16.1 mph N/A   Clear
3:15 AM 38.8 °F 33.2 °F 35.1 °F 86% 29.96 in 10.0 mi NW 8.1 mph 16.1 mph N/A   Clear
3:55 AM 39.2 °F 33.0 °F 34.7 °F 84% 29.96 in 10.0 mi NW 9.2 mph - N/A   Clear
4:15 AM 39.4 °F 34.5 °F 34.7 °F 83% 29.97 in 10.0 mi NW 6.9 mph - N/A   Clear
4:35 AM 39.2 °F 32.5 °F 34.2 °F 82% 29.98 in 10.0 mi NW 10.4 mph - N/A   Clear
4:55 AM 39.2 °F 32.5 °F 34.0 °F 82% 29.99 in 10.0 mi NW 10.4 mph - N/A   Clear
5:29 AM 37.4 °F 32.1 °F 33.8 °F 87% 30.00 in 10.0 mi NW 6.9 mph - N/A   Clear
5:35 AM 37.4 °F 32.1 °F 33.4 °F 86% 30.00 in 10.0 mi NW 6.9 mph - N/A   Clear
5:55 AM 37.6 °F 33.1 °F 34.0 °F 87% 30.01 in 10.0 mi NW 5.8 mph - N/A   Clear
6:15 AM 37.0 °F 33.3 °F 33.8 °F 88% 30.01 in 10.0 mi WNW 4.6 mph - N/A   Clear
6:35 AM 37.9 °F 33.5 °F 35.1 °F 89% 30.02 in 10.0 mi WNW 5.8 mph - N/A   Clear
6:55 AM 37.9 °F 32.7 °F 34.9 °F 89% 30.02 in 10.0 mi WNW 6.9 mph - N/A   Clear
7:15 AM 38.3 °F 33.9 °F 35.4 °F 89% 30.03 in 7.0 mi WNW 5.8 mph - N/A   Clear
7:35 AM 38.5 °F 33.4 °F 35.2 °F 88% 30.03 in 7.0 mi WNW 6.9 mph - N/A   Clear
7:55 AM 39.2 °F 33.6 °F 35.1 °F 85% 30.05 in 7.0 mi WNW 8.1 mph - N/A   Clear
8:15 AM 40.3 °F 33.9 °F 34.9 °F 81% 30.05 in 10.0 mi WNW 10.4 mph 16.1 mph N/A   Clear
8:35 AM 41.0 °F 35.8 °F 33.6 °F 75% 30.07 in 10.0 mi WNW 8.1 mph - N/A   Clear
8:55 AM 41.0 °F 33.9 °F 33.4 °F 74% 30.07 in 10.0 mi WNW 12.7 mph 17.3 mph N/A   Clear
9:15 AM 41.0 °F 35.8 °F 33.4 °F 74% 30.07 in 10.0 mi NW 8.1 mph - N/A   Clear
9:35 AM 42.3 °F 36.3 °F 34.0 °F 72% 30.08 in 10.0 mi WNW 10.4 mph 19.6 mph N/A   Clear
9:55 AM 42.4 °F 36.5 °F 34.0 °F 72% 30.09 in 10.0 mi NW 10.4 mph 17.3 mph N/A   Clear
10:15 AM 41.9 °F 35.4 °F 34.0 °F 73% 30.09 in 10.0 mi WNW 11.5 mph 17.3 mph N/A   Clear
10:35 AM 42.4 °F 36.1 °F 33.8 °F 71% 30.10 in 10.0 mi WNW 11.5 mph - N/A   Clear
10:55 AM 43.3 °F 36.8 °F 33.3 °F 68% 30.10 in 10.0 mi WNW 12.7 mph - N/A   Clear
11:15 AM 44.1 °F 38.6 °F 32.5 °F 64% 30.10 in 10.0 mi WNW 10.4 mph 17.3 mph N/A   Clear
11:35 AM 44.1 °F 38.1 °F 32.4 °F 63% 30.11 in 10.0 mi WNW 11.5 mph - N/A   Clear
11:55 AM 46.2 °F 40.1 °F 31.1 °F 56% 30.10 in 10.0 mi NW 13.8 mph 18.4 mph N/A   Clear
12:15 PM 46.0 °F 41.0 °F 31.6 °F 57% 30.10 in 10.0 mi WNW 10.4 mph 16.1 mph N/A   Clear
12:35 PM 47.7 °F - 30.2 °F 51% 30.10 in 10.0 mi NW 10.4 mph - N/A   Clear
12:55 PM 45.1 °F 39.9 °F 28.4 °F 52% 30.09 in 10.0 mi West 10.4 mph 17.3 mph N/A   Clear
1:15 PM 45.9 °F 40.8 °F 29.1 °F 52% 30.08 in 10.0 mi NW 10.4 mph 16.1 mph N/A   Clear
1:35 PM 45.7 °F 40.6 °F 29.1 °F 52% 30.09 in 10.0 mi WNW 10.4 mph 17.3 mph N/A   Clear
1:55 PM 45.1 °F 39.1 °F 28.0 °F 51% 30.09 in 10.0 mi WNW 12.7 mph 18.4 mph N/A   Clear
2:15 PM 45.9 °F 41.2 °F 27.3 °F 48% 30.08 in 10.0 mi West 9.2 mph 18.4 mph N/A   Clear
2:35 PM 47.3 °F - 27.3 °F 46% 30.08 in 10.0 mi NW 10.4 mph - N/A   Clear
2:55 PM 47.5 °F - 26.8 °F 45% 30.08 in 10.0 mi NW 9.2 mph 16.1 mph N/A   Clear
3:15 PM 47.5 °F - 25.7 °F 43% 30.09 in 10.0 mi NW 9.2 mph 16.1 mph N/A   Clear
3:35 PM 45.9 °F 40.0 °F 25.7 °F 45% 30.09 in 10.0 mi WNW 12.7 mph 16.1 mph N/A   Clear
3:55 PM 46.9 °F - 26.4 °F 45% 30.09 in 10.0 mi WNW 8.1 mph - N/A   Clear
4:15 PM 46.9 °F - 26.2 °F 44% 30.09 in 10.0 mi NW 9.2 mph 17.3 mph N/A   Clear
4:35 PM 45.9 °F 41.7 °F 26.4 °F 47% 30.09 in 10.0 mi WNW 8.1 mph - N/A   Clear
4:55 PM 45.0 °F 40.6 °F 27.0 °F 49% 30.09 in 10.0 mi WNW 8.1 mph - N/A   Clear
5:15 PM 45.0 °F 42.6 °F 27.5 °F 50% 30.09 in 10.0 mi NW 4.6 mph - N/A   Clear
5:35 PM 43.3 °F 39.2 °F 27.9 °F 54% 30.09 in 10.0 mi WNW 6.9 mph - N/A   Clear
5:55 PM 42.4 °F 40.7 °F 28.2 °F 57% 30.08 in 10.0 mi NW 3.5 mph - N/A   Clear
6:15 PM 41.2 °F - 28.4 °F 60% 30.09 in 10.0 mi Calm Calm - N/A   Clear
6:35 PM 41.4 °F - 28.6 °F 60% 30.08 in 10.0 mi Calm Calm - N/A   Clear
6:55 PM 41.0 °F - 30.7 °F 67% 30.08 in 10.0 mi Calm Calm - N/A   Clear
7:15 PM 41.4 °F - 31.6 °F 68% 30.09 in 10.0 mi Calm Calm - N/A   Clear
7:35 PM 41.4 °F - 31.6 °F 68% 30.10 in 10.0 mi Calm Calm - N/A   Clear
7:55 PM 42.1 °F 40.2 °F 30.9 °F 65% 30.10 in 10.0 mi WNW 3.5 mph - N/A   Clear
8:15 PM 42.3 °F 40.5 °F 31.5 °F 66% 30.11 in 10.0 mi West 3.5 mph - N/A   Clear
8:35 PM 41.0 °F 39.0 °F 34.5 °F 78% 30.11 in 10.0 mi SW 3.5 mph - N/A   Clear
8:55 PM 41.0 °F 39.0 °F 32.9 °F 73% 30.11 in 10.0 mi WSW 3.5 mph - N/A   Clear
9:09 PM 41.0 °F 39.0 °F 33.8 °F 76% 30.12 in 10.0 mi WSW 3.5 mph - N/A   Clear
9:29 PM 41.0 °F 39.0 °F 33.8 °F 76% 30.12 in 10.0 mi WSW 3.5 mph - N/A   Clear
9:55 PM 41.9 °F 39.0 °F 32.0 °F 68% 30.12 in 10.0 mi West 4.6 mph - N/A   Clear
10:15 PM 41.9 °F 39.0 °F 32.2 °F 68% 30.12 in 10.0 mi West 4.6 mph - N/A   Clear
10:35 PM 42.1 °F 39.2 °F 32.4 °F 68% 30.12 in 10.0 mi West 4.6 mph - N/A   Clear
10:55 PM 41.4 °F 38.4 °F 32.5 °F 71% 30.12 in 10.0 mi WSW 4.6 mph - N/A   Clear
11:15 PM 40.6 °F 36.7 °F 33.1 °F 74% 30.12 in 10.0 mi West 5.8 mph - N/A   Clear
11:35 PM 40.1 °F 36.1 °F 33.3 °F 77% 30.12 in 10.0 mi WNW 5.8 mph - N/A   Clear
11:55 PM 39.4 °F 34.5 °F 32.0 °F 75% 30.12 in 10.0 mi WNW 6.9 mph - N/A   Clear